Time,TemperatureF,DewpointF,PressureIn,WindDirection,WindDirectionDegrees,WindSpeedMPH,WindSpeedGustMPH,Humidity,HourlyPrecipIn,Conditions,Clouds,dailyrainin,SolarRadiationWatts/m^2,SoftwareType,DateUTC
2013-11-20 00:21:00,37.0,25.0,-100.00,NNE,19,3.0,7.0,61,0.00,,,0.00,0.000000,,2013-11-20 07:21:00,
2013-11-20 00:32:00,37.0,25.0,-100.00,NNE,19,3.0,7.0,61,0.00,,,0.00,0.000000,,2013-11-20 07:32:00,
2013-11-20 00:42:00,37.0,25.0,-100.00,NNE,19,3.0,7.0,61,0.00,,,0.00,0.000000,,2013-11-20 07:42:00,
2013-11-20 00:52:00,37.0,25.0,-100.00,NNE,19,3.0,7.0,61,0.00,,,0.00,0.000000,,2013-11-20 07:52:00,
2013-11-20 01:21:00,36.0,24.0,-100.00,NNE,25,2.0,7.0,62,0.00,,,0.00,0.000000,,2013-11-20 08:21:00,
2013-11-20 01:32:00,36.0,24.0,-100.00,NNE,25,2.0,7.0,62,0.00,,,0.00,0.000000,,2013-11-20 08:32:00,
2013-11-20 01:42:00,36.0,24.0,-100.00,NNE,25,2.0,7.0,62,0.00,,,0.00,0.000000,,2013-11-20 08:42:00,
2013-11-20 01:52:00,36.0,24.0,-100.00,NNE,25,2.0,7.0,62,0.00,,,0.00,0.000000,,2013-11-20 08:52:00,
2013-11-20 02:21:00,36.0,25.0,-100.00,North,359,5.0,10.0,64,0.00,,,0.00,0.000000,,2013-11-20 09:21:00,
2013-11-20 02:33:00,36.0,25.0,-100.00,North,359,5.0,10.0,64,0.00,,,0.00,0.000000,,2013-11-20 09:33:00,
2013-11-20 02:43:00,36.0,25.0,-100.00,North,359,5.0,10.0,64,0.00,,,0.00,0.000000,,2013-11-20 09:43:00,
2013-11-20 02:53:00,36.0,25.0,-100.00,North,359,5.0,10.0,64,0.00,,,0.00,0.000000,,2013-11-20 09:53:00,
2013-11-20 03:23:00,35.0,25.0,-100.00,NNE,29,3.0,8.0,66,0.00,,,0.00,0.000000,,2013-11-20 10:23:00,
2013-11-20 03:32:00,35.0,25.0,-100.00,NNE,29,3.0,8.0,66,0.00,,,0.00,0.000000,,2013-11-20 10:32:00,
2013-11-20 03:43:00,35.0,25.0,-100.00,NNE,29,3.0,8.0,66,0.00,,,0.00,0.000000,,2013-11-20 10:43:00,
2013-11-20 03:53:00,35.0,25.0,-100.00,NNE,29,3.0,8.0,66,0.00,,,0.00,0.000000,,2013-11-20 10:53:00,
2013-11-20 04:22:00,33.0,25.0,-100.00,NNE,13,5.0,7.0,72,0.00,,,0.00,0.000000,,2013-11-20 11:22:00,
2013-11-20 04:33:00,33.0,25.0,-100.00,NNE,13,5.0,7.0,72,0.00,,,0.00,0.000000,,2013-11-20 11:33:00,
2013-11-20 04:42:00,33.0,25.0,-100.00,NNE,13,5.0,7.0,72,0.00,,,0.00,0.000000,,2013-11-20 11:42:00,
2013-11-20 04:52:00,33.0,25.0,-100.00,NNE,13,5.0,7.0,72,0.00,,,0.00,0.000000,,2013-11-20 11:52:00,
2013-11-20 05:22:00,33.0,25.0,-100.00,North,358,4.0,6.0,71,0.00,,,0.00,0.000000,,2013-11-20 12:22:00,
2013-11-20 05:32:00,33.0,25.0,-100.00,North,358,4.0,6.0,71,0.00,,,0.00,0.000000,,2013-11-20 12:32:00,
2013-11-20 05:42:00,33.0,25.0,-100.00,North,358,4.0,6.0,71,0.00,,,0.00,0.000000,,2013-11-20 12:42:00,
2013-11-20 05:52:00,33.0,25.0,-100.00,North,358,4.0,6.0,71,0.00,,,0.00,0.000000,,2013-11-20 12:52:00,
2013-11-20 06:21:00,33.0,25.0,-100.00,East,80,2.0,7.0,73,0.00,,,0.00,0.000000,,2013-11-20 13:21:00,
2013-11-20 06:32:00,33.0,25.0,-100.00,East,80,2.0,7.0,73,0.00,,,0.00,0.000000,,2013-11-20 13:32:00,
2013-11-20 06:42:00,33.0,25.0,-100.00,East,80,2.0,7.0,73,0.00,,,0.00,0.000000,,2013-11-20 13:42:00,
2013-11-20 06:52:00,33.0,25.0,-100.00,East,80,2.0,7.0,73,0.00,,,0.00,0.000000,,2013-11-20 13:52:00,
2013-11-20 07:22:00,32.0,25.0,-100.00,North,359,5.0,8.0,75,0.00,,,0.00,1.000000,,2013-11-20 14:22:00,
2013-11-20 07:32:00,32.0,25.0,-100.00,North,359,5.0,8.0,75,0.00,,,0.00,1.000000,,2013-11-20 14:32:00,
2013-11-20 07:42:00,32.0,25.0,-100.00,North,359,5.0,8.0,75,0.00,,,0.00,1.000000,,2013-11-20 14:42:00,
2013-11-20 07:52:00,32.0,25.0,-100.00,North,359,5.0,8.0,75,0.00,,,0.00,1.000000,,2013-11-20 14:52:00,
2013-11-20 08:43:00,33.0,26.0,-100.00,WNW,289,1.0,4.0,75,0.00,,,0.00,42.000000,,2013-11-20 15:43:00,
2013-11-20 08:53:00,33.0,26.0,-100.00,WNW,289,1.0,4.0,75,0.00,,,0.00,42.000000,,2013-11-20 15:53:00,
2013-11-20 09:43:00,38.0,28.0,-100.00,WSW,257,1.0,4.0,67,0.00,,,0.00,148.000000,,2013-11-20 16:43:00,
2013-11-20 09:52:00,38.0,28.0,-100.00,WSW,257,1.0,4.0,67,0.00,,,0.00,148.000000,,2013-11-20 16:52:00,
2013-11-20 10:52:00,43.0,29.0,-100.00,South,172,3.0,8.0,57,0.00,,,0.00,272.000000,,2013-11-20 17:52:00,
2013-11-20 11:21:00,47.0,29.0,-100.00,SE,143,6.0,9.0,49,0.00,,,0.00,484.000000,,2013-11-20 18:21:00,
2013-11-20 11:32:00,47.0,29.0,-100.00,SE,143,6.0,9.0,49,0.00,,,0.00,484.000000,,2013-11-20 18:32:00,
2013-11-20 11:42:00,47.0,29.0,-100.00,SE,143,6.0,9.0,49,0.00,,,0.00,484.000000,,2013-11-20 18:42:00,
2013-11-20 11:52:00,47.0,29.0,-100.00,SE,143,6.0,9.0,49,0.00,,,0.00,484.000000,,2013-11-20 18:52:00,
2013-11-20 12:21:00,49.0,30.0,-100.00,SSW,207,5.0,10.0,47,0.00,,,0.00,541.000000,,2013-11-20 19:21:00,
2013-11-20 12:32:00,49.0,30.0,-100.00,SSW,207,5.0,10.0,47,0.00,,,0.00,541.000000,,2013-11-20 19:32:00,
2013-11-20 12:42:00,49.0,30.0,-100.00,SSW,207,5.0,10.0,47,0.00,,,0.00,541.000000,,2013-11-20 19:42:00,
2013-11-20 12:52:00,49.0,30.0,-100.00,SSW,207,5.0,10.0,47,0.00,,,0.00,541.000000,,2013-11-20 19:52:00,
2013-11-20 13:21:00,49.0,29.0,-100.00,SW,222,5.0,12.0,46,0.00,,,0.00,517.000000,,2013-11-20 20:21:00,
2013-11-20 13:32:00,49.0,29.0,-100.00,SW,222,5.0,12.0,46,0.00,,,0.00,517.000000,,2013-11-20 20:32:00,
2013-11-20 13:42:00,49.0,29.0,-100.00,SW,222,5.0,12.0,46,0.00,,,0.00,517.000000,,2013-11-20 20:42:00,
2013-11-20 13:52:00,49.0,29.0,-100.00,SW,222,5.0,12.0,46,0.00,,,0.00,517.000000,,2013-11-20 20:52:00,
2013-11-20 14:21:00,46.0,29.0,-100.00,SSW,205,5.0,11.0,51,0.00,,,0.00,199.000000,,2013-11-20 21:21:00,
2013-11-20 14:33:00,46.0,29.0,-100.00,SSW,205,5.0,11.0,51,0.00,,,0.00,199.000000,,2013-11-20 21:33:00,
2013-11-20 14:43:00,46.0,29.0,-100.00,SSW,205,5.0,11.0,51,0.00,,,0.00,199.000000,,2013-11-20 21:43:00,
2013-11-20 14:53:00,46.0,29.0,-100.00,SSW,205,5.0,11.0,51,0.00,,,0.00,199.000000,,2013-11-20 21:53:00,
2013-11-20 15:23:00,44.0,28.0,-100.00,South,178,5.0,11.0,54,0.00,,,0.00,69.000000,,2013-11-20 22:23:00,
2013-11-20 15:32:00,44.0,28.0,-100.00,South,178,5.0,11.0,54,0.00,,,0.00,69.000000,,2013-11-20 22:32:00,
2013-11-20 15:42:00,44.0,28.0,-100.00,South,178,5.0,11.0,54,0.00,,,0.00,69.000000,,2013-11-20 22:42:00,
2013-11-20 15:53:00,44.0,28.0,-100.00,South,178,5.0,11.0,54,0.00,,,0.00,69.000000,,2013-11-20 22:53:00,
2013-11-20 16:21:00,44.0,29.0,-100.00,West,270,4.0,8.0,56,0.00,,,0.00,44.000000,,2013-11-20 23:21:00,
2013-11-20 16:32:00,44.0,29.0,-100.00,West,270,4.0,8.0,56,0.00,,,0.00,44.000000,,2013-11-20 23:32:00,
2013-11-20 16:42:00,44.0,29.0,-100.00,West,270,4.0,8.0,56,0.00,,,0.00,44.000000,,2013-11-20 23:42:00,
2013-11-20 16:52:00,44.0,29.0,-100.00,West,270,4.0,8.0,56,0.00,,,0.00,44.000000,,2013-11-20 23:52:00,
2013-11-20 17:21:00,40.0,32.0,-100.00,NNW,335,7.0,13.0,72,0.00,,,0.00,7.000000,,2013-11-21 00:21:00,
2013-11-20 17:32:00,40.0,32.0,-100.00,NNW,335,7.0,13.0,72,0.00,,,0.00,7.000000,,2013-11-21 00:32:00,
2013-11-20 17:42:00,40.0,32.0,-100.00,NNW,335,7.0,13.0,72,0.00,,,0.00,7.000000,,2013-11-21 00:42:00,
2013-11-20 17:52:00,40.0,32.0,-100.00,NNW,335,7.0,13.0,72,0.00,,,0.00,7.000000,,2013-11-21 00:52:00,
2013-11-20 18:22:00,38.0,32.0,-100.00,NW,319,4.0,10.0,79,0.00,,,0.00,0.000000,,2013-11-21 01:22:00,
2013-11-20 18:32:00,38.0,32.0,-100.00,NW,319,4.0,10.0,79,0.00,,,0.00,0.000000,,2013-11-21 01:32:00,
2013-11-20 18:42:00,38.0,32.0,-100.00,NW,319,4.0,10.0,79,0.00,,,0.00,0.000000,,2013-11-21 01:42:00,
2013-11-20 18:52:00,38.0,32.0,-100.00,NW,319,4.0,10.0,79,0.00,,,0.00,0.000000,,2013-11-21 01:52:00,
2013-11-20 19:21:00,37.0,34.0,-100.00,NNE,13,2.0,6.0,89,0.02,,,0.02,0.000000,,2013-11-21 02:21:00,
2013-11-20 19:32:00,37.0,34.0,-100.00,NNE,13,2.0,6.0,89,0.02,,,0.02,0.000000,,2013-11-21 02:32:00,
2013-11-20 19:42:00,37.0,34.0,-100.00,NNE,13,2.0,6.0,89,0.02,,,0.02,0.000000,,2013-11-21 02:42:00,
2013-11-20 19:52:00,37.0,34.0,-100.00,NNE,13,2.0,6.0,89,0.02,,,0.02,0.000000,,2013-11-21 02:52:00,
2013-11-20 20:21:00,36.0,34.0,-100.00,WSW,248,2.0,5.0,94,0.04,,,0.06,0.000000,,2013-11-21 03:21:00,
2013-11-20 20:33:00,36.0,34.0,-100.00,WSW,248,2.0,5.0,94,0.04,,,0.06,0.000000,,2013-11-21 03:33:00,
2013-11-20 20:43:00,36.0,34.0,-100.00,WSW,248,2.0,5.0,94,0.04,,,0.06,0.000000,,2013-11-21 03:43:00,
2013-11-20 20:53:00,36.0,34.0,-100.00,WSW,248,2.0,5.0,94,0.04,,,0.06,0.000000,,2013-11-21 03:53:00,
2013-11-20 21:23:00,35.0,33.0,-100.00,SSE,150,1.0,3.0,94,0.05,,,0.11,0.000000,,2013-11-21 04:23:00,
2013-11-20 21:33:00,35.0,33.0,-100.00,SSE,150,1.0,3.0,94,0.05,,,0.11,0.000000,,2013-11-21 04:33:00,
2013-11-20 21:43:00,35.0,33.0,-100.00,SSE,150,1.0,3.0,94,0.05,,,0.11,0.000000,,2013-11-21 04:43:00,
2013-11-20 21:53:00,35.0,33.0,-100.00,SSE,150,1.0,3.0,94,0.05,,,0.11,0.000000,,2013-11-21 04:53:00,
2013-11-20 22:22:00,34.0,33.0,-100.00,SSE,164,1.0,4.0,95,0.02,,,0.13,0.000000,,2013-11-21 05:22:00,
2013-11-20 22:32:00,34.0,33.0,-100.00,SSE,164,1.0,4.0,95,0.02,,,0.13,0.000000,,2013-11-21 05:32:00,
2013-11-20 22:42:00,34.0,33.0,-100.00,SSE,164,1.0,4.0,95,0.02,,,0.13,0.000000,,2013-11-21 05:42:00,
2013-11-20 22:52:00,34.0,33.0,-100.00,SSE,164,1.0,4.0,95,0.02,,,0.13,0.000000,,2013-11-21 05:52:00,
2013-11-20 23:22:00,34.0,33.0,-100.00,South,179,0.0,3.0,95,0.01,,,0.14,0.000000,,2013-11-21 06:22:00,
2013-11-20 23:33:00,34.0,33.0,-100.00,South,179,0.0,3.0,95,0.01,,,0.14,0.000000,,2013-11-21 06:33:00,
2013-11-20 23:43:00,34.0,33.0,-100.00,South,179,0.0,3.0,95,0.01,,,0.14,0.000000,,2013-11-21 06:43:00,
2013-11-20 23:52:00,34.0,33.0,-100.00,South,179,0.0,3.0,95,0.01,,,0.14,0.000000,,2013-11-21 06:52:00,